Terminal Aerodrome Forecast
Issued by NWS Grand Forks, ND

Home | Current Version | Previous Version | Text Only | Print | Product List | Glossary Off
Versions: 1 2 3 4 5 6 7 8 9 10 11 12 13 14 15

000
FTUS43 KFGF 101100
TAFGFK
TAF
KGFK 101138Z 1012/1112 16005KT P6SM SKC
     FM101600 18013KT P6SM BKN250
     FM110100 16009KT P6SM SCT200=

USA.gov is the U.S. government's official web portal to all federal, state and local government web resources and services.